TimeCST,TemperatureF,Dew PointF,Humidity,Sea Level PressureIn,VisibilityMPH,Wind Direction,Wind SpeedMPH,Gust SpeedMPH,PrecipitationIn,Events,Conditions,WindDirDegrees,DateUTC
12:15 AM,27.9,13.8,56,30.03,10.0,WNW,4.6,-,N/A,,Scattered Clouds,300,2014-02-23 06:15:00
12:35 AM,26.6,14.0,59,30.04,10.0,Calm,Calm,-,N/A,,Clear,0,2014-02-23 06:35:00
12:55 AM,25.7,14.0,61,30.04,10.0,West,3.5,-,N/A,,Clear,270,2014-02-23 06:55:00
1:15 AM,23.7,14.4,67,30.05,10.0,West,3.5,-,N/A,,Clear,260,2014-02-23 07:15:00
1:35 AM,23.7,14.4,67,30.06,10.0,West,4.6,-,N/A,,Scattered Clouds,280,2014-02-23 07:35:00
1:55 AM,24.1,14.2,66,30.06,10.0,WNW,3.5,-,N/A,,Scattered Clouds,300,2014-02-23 07:55:00
2:15 AM,22.6,14.0,69,30.06,10.0,NW,3.5,-,N/A,,Scattered Clouds,310,2014-02-23 08:15:00
2:35 AM,22.8,14.0,69,30.06,10.0,Calm,Calm,-,N/A,,Clear,0,2014-02-23 08:35:00
2:55 AM,22.6,14.0,69,30.06,10.0,Calm,Calm,-,N/A,,Clear,0,2014-02-23 08:55:00
3:15 AM,21.9,13.3,69,30.06,10.0,NNW,4.6,-,N/A,,Clear,330,2014-02-23 09:15:00
3:35 AM,22.3,14.0,71,30.07,10.0,Calm,Calm,-,N/A,,Clear,0,2014-02-23 09:35:00
3:55 AM,22.6,14.0,69,30.08,10.0,Calm,Calm,-,N/A,,Clear,0,2014-02-23 09:55:00
4:15 AM,23.0,14.0,68,30.09,10.0,WNW,3.5,-,N/A,,Scattered Clouds,290,2014-02-23 10:15:00
4:35 AM,23.2,14.0,68,30.10,10.0,WNW,3.5,-,N/A,,Mostly Cloudy,290,2014-02-23 10:35:00
4:55 AM,23.0,14.0,68,30.12,10.0,NW,5.8,-,N/A,,Mostly Cloudy,310,2014-02-23 10:55:00
5:15 AM,23.0,14.0,68,30.11,10.0,WNW,5.8,-,N/A,,Mostly Cloudy,300,2014-02-23 11:15:00
5:35 AM,22.5,13.5,68,30.11,10.0,NW,8.1,-,N/A,,Mostly Cloudy,310,2014-02-23 11:35:00
5:55 AM,22.1,13.6,70,30.12,10.0,NW,9.2,-,N/A,,Mostly Cloudy,320,2014-02-23 11:55:00
6:15 AM,21.9,12.9,68,30.12,10.0,NW,8.1,-,N/A,,Overcast,310,2014-02-23 12:15:00
6:35 AM,21.7,12.0,66,30.13,10.0,NW,6.9,-,N/A,,Overcast,310,2014-02-23 12:35:00
6:55 AM,21.6,11.1,64,30.14,10.0,NW,9.2,-,N/A,,Mostly Cloudy,310,2014-02-23 12:55:00
7:15 AM,21.2,10.4,63,30.15,10.0,NW,10.4,16.1,N/A,,Scattered Clouds,310,2014-02-23 13:15:00
7:35 AM,21.2,9.7,61,30.16,10.0,NW,11.5,-,N/A,,Scattered Clouds,310,2014-02-23 13:35:00
7:55 AM,21.4,9.9,61,30.16,10.0,NW,9.2,-,N/A,,Scattered Clouds,310,2014-02-23 13:55:00
8:15 AM,21.4,9.7,61,30.16,10.0,NW,6.9,-,N/A,,Clear,310,2014-02-23 14:15:00
8:35 AM,22.1,10.4,61,30.17,10.0,WNW,5.8,-,N/A,,Clear,300,2014-02-23 14:35:00
8:55 AM,21.9,10.2,61,30.17,10.0,NW,5.8,9.2,N/A,,Clear,310,2014-02-23 14:55:00
9:15 AM,21.9,9.9,60,30.17,10.0,WNW,8.1,16.1,N/A,,Clear,300,2014-02-23 15:15:00
9:35 AM,22.1,9.9,59,30.17,10.0,NW,11.5,-,N/A,,Clear,310,2014-02-23 15:35:00
9:55 AM,22.5,9.1,57,30.17,10.0,NW,10.4,-,N/A,,Clear,310,2014-02-23 15:55:00
10:15 AM,23.0,10.2,58,30.17,10.0,NW,9.2,-,N/A,,Clear,310,2014-02-23 16:15:00
10:35 AM,22.8,9.5,57,30.17,10.0,NW,10.4,-,N/A,,Clear,310,2014-02-23 16:35:00
10:55 AM,23.0,10.2,58,30.18,10.0,WNW,9.2,16.1,N/A,,Clear,300,2014-02-23 16:55:00
11:15 AM,23.0,9.9,57,30.19,10.0,NW,9.2,18.4,N/A,,Clear,310,2014-02-23 17:15:00
11:35 AM,23.0,9.5,56,30.18,10.0,NW,9.2,-,N/A,,Clear,310,2014-02-23 17:35:00
11:55 AM,23.4,8.8,54,30.18,10.0,NW,11.5,-,N/A,,Clear,320,2014-02-23 17:55:00
12:15 PM,23.9,9.3,54,30.17,10.0,NW,8.1,-,N/A,,Clear,320,2014-02-23 18:15:00
12:35 PM,23.9,9.0,53,30.17,10.0,WNW,8.1,16.1,N/A,,Clear,300,2014-02-23 18:35:00
12:55 PM,24.3,10.4,56,30.16,10.0,NW,11.5,16.1,N/A,,Clear,320,2014-02-23 18:55:00
1:15 PM,24.4,10.2,55,30.17,10.0,NW,8.1,-,N/A,,Clear,310,2014-02-23 19:15:00
1:35 PM,24.8,9.3,52,30.16,10.0,NW,10.4,-,N/A,,Clear,310,2014-02-23 19:35:00
1:55 PM,25.5,9.3,50,30.16,10.0,NW,8.1,-,N/A,,Clear,310,2014-02-23 19:55:00
2:15 PM,25.9,7.9,47,30.16,10.0,West,9.2,-,N/A,,Clear,280,2014-02-23 20:15:00
2:35 PM,26.4,7.0,44,30.16,10.0,WNW,6.9,-,N/A,,Clear,300,2014-02-23 20:35:00
2:55 PM,27.3,7.5,43,30.15,10.0,WNW,8.1,-,N/A,,Clear,300,2014-02-23 20:55:00
3:15 PM,27.9,7.2,42,30.15,10.0,West,6.9,-,N/A,,Clear,280,2014-02-23 21:15:00
3:35 PM,28.0,6.6,40,30.15,10.0,WNW,6.9,-,N/A,,Clear,300,2014-02-23 21:35:00
3:55 PM,28.0,6.4,40,30.15,10.0,WNW,6.9,-,N/A,,Clear,290,2014-02-23 21:55:00
4:15 PM,28.2,7.7,42,30.15,10.0,West,6.9,-,N/A,,Clear,280,2014-02-23 22:15:00
4:35 PM,27.5,6.8,42,30.15,10.0,West,5.8,-,N/A,,Clear,280,2014-02-23 22:35:00
4:55 PM,27.5,7.9,44,30.14,10.0,West,6.9,-,N/A,,Clear,280,2014-02-23 22:55:00
5:15 PM,27.0,6.8,43,30.15,10.0,West,13.8,18.4,N/A,,Clear,280,2014-02-23 23:15:00
5:35 PM,26.1,6.1,43,30.15,10.0,West,9.2,-,N/A,,Clear,270,2014-02-23 23:35:00
5:55 PM,24.6,8.2,50,30.15,10.0,WSW,10.4,-,N/A,,Clear,250,2014-02-23 23:55:00
6:15 PM,23.9,9.5,54,30.16,10.0,WSW,10.4,-,N/A,,Clear,250,2014-02-24 00:15:00
6:35 PM,23.2,9.3,55,30.16,10.0,West,10.4,-,N/A,,Clear,260,2014-02-24 00:35:00
6:55 PM,22.8,8.8,55,30.16,10.0,West,11.5,-,N/A,,Clear,270,2014-02-24 00:55:00
7:15 PM,21.9,9.3,58,30.17,10.0,West,6.9,-,N/A,,Scattered Clouds,260,2014-02-24 01:15:00
7:35 PM,21.2,9.5,61,30.17,10.0,West,9.2,-,N/A,,Mostly Cloudy,260,2014-02-24 01:35:00
7:55 PM,21.2,9.9,62,30.17,10.0,West,12.7,-,N/A,,Mostly Cloudy,270,2014-02-24 01:55:00
8:15 PM,20.5,10.2,65,30.18,10.0,West,10.4,-,N/A,,Scattered Clouds,270,2014-02-24 02:15:00
8:35 PM,20.1,10.2,66,30.17,10.0,West,9.2,-,N/A,,Mostly Cloudy,270,2014-02-24 02:35:00
8:55 PM,19.4,10.0,67,30.18,10.0,West,8.1,-,N/A,,Mostly Cloudy,270,2014-02-24 02:55:00
9:20 PM,19.0,9.9,67,30.17,10.0,West,9.2,-,N/A,,Mostly Cloudy,270,2014-02-24 03:20:00
9:35 PM,18.7,9.5,67,30.17,10.0,West,9.2,-,N/A,,Mostly Cloudy,270,2014-02-24 03:35:00
9:55 PM,18.5,9.1,67,30.17,10.0,West,10.4,-,N/A,,Scattered Clouds,260,2014-02-24 03:55:00
10:20 PM,18.0,8.2,66,30.17,10.0,West,10.4,-,N/A,,Scattered Clouds,260,2014-02-24 04:20:00
10:35 PM,18.0,7.7,64,30.17,10.0,West,10.4,-,N/A,,Mostly Cloudy,260,2014-02-24 04:35:00
10:55 PM,17.2,7.2,65,30.17,10.0,West,11.5,16.1,N/A,,Scattered Clouds,270,2014-02-24 04:55:00
11:15 PM,17.1,7.0,65,30.17,10.0,West,10.4,-,N/A,,Scattered Clouds,270,2014-02-24 05:15:00
11:35 PM,16.7,7.2,66,30.17,10.0,West,10.4,-,N/A,,Scattered Clouds,270,2014-02-24 05:35:00
11:55 PM,16.5,7.3,67,30.18,10.0,West,10.4,-,N/A,,Mostly Cloudy,270,2014-02-24 05:55:00